{"data":{"norad_id":63995,"intl_designator":"2025-101B","name":"STARLINK-34154","alt_names":[],"object_type":"PAYLOAD","status":"ACTIVE","operator":null,"country":"US","launch_date":"2025-05-14","launch_site_code":"AFETR","launch_vehicle":null,"mission":null,"orbit_class":"UNKNOWN","rcs_meters":null,"size_class":null,"mass_kg":null,"dimensions":null,"purposes":["comms"],"wikipedia_slug":null,"has_3d_model":false,"image_url":null,"decayed_at":null,"tle_current":{"epoch":"2026-05-25T02:41:13.311168Z","epoch_age_seconds":64819,"freshness":"FRESH","line1":"1 63995U 25101B   26145.11195962  .00017113  00000+0  62956-3 0  9996","line2":"2 63995  43.0002 286.3214 0002241 263.0120  97.0477 15.27599267 58743","mean_motion":15.27599267,"eccentricity":0.0002241,"inclination_deg":43.0002,"raan_deg":286.3214,"arg_perigee_deg":263.012,"mean_anomaly_deg":97.0477,"bstar":0.00062956,"rev_number":5874,"period_min":94.265559764765,"perigee_km":481.45382544135,"apogee_km":484.52898319217,"semimajor_km":6861.1284043168,"source":"CELESTRAK","updated_at":"2026-05-25T13:38:20.217312Z"}}}